Pitkin, LA

5:53 AM CST on February 09, 2016 (GMT -0600)
Fort Polk

Weather History for KBKB - June, 2013

Change the Weather History Date:

Saturday, June 29, 2013

  Actual Average (KPOE) Record (KPOE)
Temperature  
Mean Temperature 87 °F -  
Max Temperature 99 °F 87 °F 98 °F (2013)
Min Temperature 73 °F 70 °F 66 °F (2006)
Cooling Degree Days 22    
Growing Degree Days 37 (Base 50)    
Moisture  
Dew Point 70 °F    
Average Humidity 60    
Maximum Humidity 84    
Minimum Humidity 34    
Precipitation  
Precipitation 0.00 in - - ()
Sea Level Pressure  
Sea Level Pressure 29.82 in    
Wind  
Wind Speed 3 mph (South)    
Max Wind Speed 7 mph    
Max Gust Speed -    
Visibility 10 miles    
Events Thunderstorm    
Averages and records for this station are not official NWS values.
T = Trace of Precipitation, MM = Missing Value Source: NWS Daily Summary

Daily Weather History Graph

Daily Weather History Graph

Search for Another Location

Airport or City:

Trip Planner

Search our weather history database for the weather conditions in past years. The results will help you decide how hot, cold, wet, or windy it might be!

Date:

Astronomy

Jun. 29, 2013 Rise Set
Actual Time 6:11 AM CDT 8:19 PM CDT
Civil Twilight 5:43 AM CDT 8:47 PM CDT
Nautical Twilight 5:09 AM CDT 9:20 PM CDT
Astronomical Twilight 4:32 AM CDT 9:57 PM CDT
Moon 12:15 AM CDT (6/29) 12:53 PM CDT (6/29)
Length of Visible Light 15h 03m
Length of Day
14h 08m
Waning Gibbous, 55% of the Moon is Illuminated
Jun 29
Waning Gibbous
Jun 29
Last Quarter
Jul 8
New
Jul 15
First Quarter
Jul 22
Full

Hourly Weather History & Observations

Time (CDT) Temp. Heat Index Dew Point Humidity Pressure Visibility Wind Dir Wind Speed Gust Speed Precip Events Conditions
12:54 AM 82.9 °F 90.2 °F 75.0 °F 77% 29.86 in 10.0 mi Calm Calm - N/A   Mostly Cloudy
1:54 AM 82.0 °F 88.6 °F 75.0 °F 79% 29.86 in 10.0 mi Variable 4.6 mph - N/A   Partly Cloudy
2:54 AM 82.0 °F 87.9 °F 73.9 °F 76% 29.84 in 10.0 mi Variable 4.6 mph - N/A   Clear
3:54 AM 80.1 °F 84.5 °F 73.9 °F 81% 29.85 in 10.0 mi Calm Calm - N/A Thunderstorm Thunderstorm
4:07 AM 80.6 °F 85.4 °F 73.4 °F 79% 29.77 in 10.0 mi Variable 3.5 mph - N/A   Scattered Clouds
4:54 AM 79.0 °F - 73.9 °F 84% 29.84 in 10.0 mi Calm Calm - N/A   Partly Cloudy
5:54 AM 79.0 °F - 73.9 °F 84% 29.83 in 10.0 mi Calm Calm - N/A   Scattered Clouds
7:54 AM 82.0 °F 87.9 °F 73.9 °F 76% 29.85 in 10.0 mi Variable 4.6 mph - N/A   Clear
8:54 AM 86.0 °F 95.1 °F 75.0 °F 70% 29.85 in 10.0 mi Variable 3.5 mph - N/A   Clear
9:54 AM 89.1 °F 100.2 °F 75.9 °F 65% 29.85 in 10.0 mi Calm Calm - N/A   Clear
10:54 AM 93.0 °F 101.9 °F 73.0 °F 52% 29.84 in 10.0 mi Variable 5.8 mph - N/A   Clear
11:54 AM 95.0 °F 102.5 °F 71.1 °F 46% 29.84 in 10.0 mi North 6.9 mph - N/A   Clear
12:54 PM 97.0 °F 101.0 °F 66.9 °F 37% 29.83 in 10.0 mi Variable 3.5 mph - N/A   Scattered Clouds
1:54 PM 98.1 °F 102.4 °F 66.9 °F 36% 29.81 in 10.0 mi Variable 5.8 mph - N/A   Partly Cloudy
2:54 PM 98.1 °F 102.4 °F 66.9 °F 36% 29.80 in 10.0 mi Variable 5.8 mph - N/A   Partly Cloudy
3:54 PM 99.0 °F 102.9 °F 66.0 °F 34% 29.78 in 10.0 mi Variable 6.9 mph - N/A   Partly Cloudy
4:54 PM 98.1 °F 101.2 °F 64.9 °F 34% 29.78 in 10.0 mi Variable 4.6 mph - N/A   Partly Cloudy
5:54 PM 96.1 °F 98.8 °F 64.9 °F 36% 29.76 in 10.0 mi Variable 5.8 mph - N/A   Clear
6:54 PM 93.9 °F 95.2 °F 63.0 °F 36% 29.78 in 10.0 mi Variable 3.5 mph - N/A   Clear
7:54 PM 87.1 °F 87.8 °F 63.0 °F 44% 29.79 in 10.0 mi Calm Calm - N/A   Clear
8:54 PM 80.1 °F 81.7 °F 64.0 °F 58% 29.80 in 10.0 mi Calm Calm - N/A   Clear
9:54 PM 78.1 °F - 66.9 °F 68% 29.82 in 10.0 mi Calm Calm - N/A   Clear
10:54 PM 75.9 °F - 66.9 °F 74% 29.84 in 10.0 mi Calm Calm - N/A   Clear
11:54 PM 73.0 °F - 66.9 °F 81% 29.84 in 10.0 mi Calm Calm - N/A   Clear